Tiempo cada hora Aarwangen

Hoy, 24 Junio, Jueves

Tiempo Temperatura Precipitaciones Viento Presión Humedad
00:00 +15°C° 0.3 mm 1 mps 720 mmHg 97%
01:00 +15°C° 0.3 mm 1 mps 720 mmHg 97%
02:00 +14°C° 0.1 mm 1 mps 720 mmHg 97%
03:00 +14°C° 0.1 mm 1 mps 720 mmHg 97%
04:00 +14°C° 0.1 mm 1 mps 720 mmHg 96%
05:00 +14°C° 0 mm 0 mps 720 mmHg 95%
06:00 +14°C° 0 mm 0 mps 720 mmHg 94%
07:00 +15°C° 0 mm 0 mps 720 mmHg 93%
08:00 +16°C° 0.5 mm 0 mps 720 mmHg 88%
09:00 +17°C° 0.5 mm 0 mps 720 mmHg 84%
10:00 +20°C° 0.5 mm 1 mps 720 mmHg 79%
11:00 +21°C° 0.6 mm 1 mps 720 mmHg 76%
12:00 +22°C° 0.6 mm 1 mps 720 mmHg 72%
13:00 +23°C° 0.6 mm 2 mps 720 mmHg 69%
14:00 +20°C° 2.8 mm 2 mps 720 mmHg 76%
15:00 +19°C° 2.8 mm 3 mps 720 mmHg 83%
16:00 +17°C° 2.8 mm 3 mps 720 mmHg 90%
17:00 +16°C° 3.8 mm 3 mps 721 mmHg 92%
18:00 +16°C° 3.8 mm 2 mps 721 mmHg 94%
19:00 +15°C° 3.8 mm 2 mps 722 mmHg 96%
20:00 +15°C° 0.4 mm 1 mps 722 mmHg 96%
21:00 +14°C° 0.4 mm 1 mps 722 mmHg 96%
22:00 +14°C° 0.4 mm 1 mps 723 mmHg 96%
23:00 +13°C° 0.1 mm 1 mps 722 mmHg 96%

Mañana, 25 Junio, Viernes

Tiempo Temperatura Precipitaciones Viento Presión Humedad
00:00 +13°C° 0.1 mm 1 mps 722 mmHg 96%
01:00 +13°C° 0.1 mm 1 mps 722 mmHg 96%
02:00 +13°C° 0.2 mm 1 mps 722 mmHg 97%
03:00 +12°C° 0.2 mm 0 mps 722 mmHg 97%
04:00 +12°C° 0.2 mm 0 mps 722 mmHg 97%
05:00 +12°C° 0.1 mm 0 mps 722 mmHg 97%
06:00 +13°C° 0.1 mm 0 mps 722 mmHg 97%
07:00 +13°C° 0.1 mm 0 mps 722 mmHg 97%
08:00 +13°C° 0.2 mm 0 mps 722 mmHg 95%
09:00 +14°C° 0.2 mm 0 mps 722 mmHg 93%
10:00 +15°C° 0.2 mm 0 mps 722 mmHg 91%
11:00 +18°C° 0.4 mm 1 mps 722 mmHg 84%
12:00 +20°C° 0.4 mm 1 mps 721 mmHg 78%
13:00 +20°C° 0.4 mm 2 mps 721 mmHg 71%
14:00 +20°C° 0.4 mm 2 mps 721 mmHg 72%
15:00 +20°C° 0.4 mm 2 mps 721 mmHg 74%
16:00 +19°C° 0.4 mm 2 mps 721 mmHg 75%
17:00 +20°C° 0.4 mm 1 mps 721 mmHg 78%
18:00 +19°C° 0.4 mm 1 mps 721 mmHg 81%
19:00 +19°C° 0.4 mm 1 mps 721 mmHg 84%
20:00 +16°C° 0 mm 1 mps 721 mmHg 87%
21:00 +15°C° 0 mm 1 mps 721 mmHg 90%
22:00 +13°C° 0 mm 1 mps 722 mmHg 93%
23:00 +12°C° 0 mm 0 mps 721 mmHg 94%

Pasado mañana, 26 Junio, Sábado

Tiempo Temperatura Precipitaciones Viento Presión Humedad
00:00 +12°C° 0 mm 0 mps 721 mmHg 94%
01:00 +11°C° 0 mm 0 mps 721 mmHg 94%
02:00 +11°C° 0 mm 0 mps 721 mmHg 95%
03:00 +11°C° 0 mm 0 mps 721 mmHg 95%
04:00 +10°C° 0 mm 0 mps 721 mmHg 95%
05:00 +12°C° 0 mm 0 mps 721 mmHg 93%
06:00 +13°C° 0 mm 0 mps 721 mmHg 91%
07:00 +14°C° 0 mm 0 mps 721 mmHg 89%
08:00 +16°C° 0 mm 0 mps 721 mmHg 81%
09:00 +20°C° 0 mm 1 mps 721 mmHg 73%
10:00 +22°C° 0 mm 1 mps 721 mmHg 65%
11:00 +23°C° 0 mm 1 mps 721 mmHg 59%
12:00 +24°C° 0 mm 1 mps 720 mmHg 54%
13:00 +26°C° 0 mm 1 mps 720 mmHg 49%
14:00 +26°C° 0 mm 1 mps 720 mmHg 48%
15:00 +26°C° 0 mm 1 mps 720 mmHg 46%
16:00 +26°C° 0 mm 1 mps 720 mmHg 45%
17:00 +25°C° 0 mm 1 mps 719 mmHg 55%
18:00 +24°C° 0 mm 1 mps 719 mmHg 65%
19:00 +22°C° 0 mm 1 mps 719 mmHg 75%
20:00 +21°C° 0 mm 1 mps 719 mmHg 79%
21:00 +19°C° 0 mm 1 mps 719 mmHg 82%
22:00 +18°C° 0 mm 1 mps 719 mmHg 86%
23:00 +16°C° 0 mm 1 mps 719 mmHg 88%

27 Junio, Domingo

Tiempo Temperatura Precipitaciones Viento Presión Humedad
00:00 +16°C° 0 mm 1 mps 718 mmHg 89%
01:00 +15°C° 0 mm 1 mps 718 mmHg 91%
02:00 +15°C° 0 mm 1 mps 718 mmHg 91%
03:00 +15°C° 0 mm 1 mps 718 mmHg 91%
04:00 +14°C° 0 mm 1 mps 718 mmHg 92%
05:00 +16°C° 0 mm 1 mps 718 mmHg 88%
06:00 +18°C° 0 mm 1 mps 718 mmHg 84%
07:00 +19°C° 0 mm 1 mps 718 mmHg 81%
08:00 +21°C° 0 mm 1 mps 718 mmHg 73%
09:00 +23°C° 0 mm 1 mps 718 mmHg 65%
10:00 +25°C° 0 mm 1 mps 718 mmHg 57%
11:00 +27°C° 0 mm 1 mps 718 mmHg 53%
12:00 +28°C° 0 mm 1 mps 718 mmHg 49%
13:00 +29°C° 0 mm 2 mps 717 mmHg 45%
14:00 +29°C° 0 mm 2 mps 717 mmHg 48%
15:00 +29°C° 0 mm 2 mps 717 mmHg 50%
16:00 +29°C° 0 mm 2 mps 717 mmHg 53%
17:00 +26°C° 2.2 mm 2 mps 717 mmHg 66%
18:00 +23°C° 2.2 mm 2 mps 717 mmHg 80%
19:00 +19°C° 2.2 mm 2 mps 718 mmHg 94%
20:00 +19°C° 0.6 mm 2 mps 718 mmHg 95%
21:00 +19°C° 0.6 mm 1 mps 717 mmHg 96%
22:00 +19°C° 0.6 mm 1 mps 717 mmHg 96%
23:00 +18°C° 0.3 mm 1 mps 717 mmHg 97%

28 Junio, Lunes

Tiempo Temperatura Precipitaciones Viento Presión Humedad
00:00 +16°C° 0.3 mm 0 mps 718 mmHg 97%
01:00 +16°C° 0.3 mm 0 mps 718 mmHg 97%
02:00 +16°C° 0.4 mm 1 mps 718 mmHg 98%
03:00 +16°C° 0.4 mm 1 mps 718 mmHg 98%
04:00 +16°C° 0.4 mm 1 mps 718 mmHg 98%
05:00 +18°C° 0.1 mm 1 mps 718 mmHg 97%
06:00 +18°C° 0.1 mm 1 mps 718 mmHg 97%
07:00 +19°C° 0.1 mm 1 mps 719 mmHg 96%
08:00 +19°C° 0.1 mm 1 mps 719 mmHg 94%
09:00 +20°C° 0.1 mm 1 mps 719 mmHg 92%
10:00 +20°C° 0.1 mm 1 mps 719 mmHg 90%
11:00 +21°C° 0.2 mm 1 mps 719 mmHg 87%
12:00 +20°C° 0.2 mm 2 mps 719 mmHg 84%
13:00 +21°C° 0.2 mm 2 mps 719 mmHg 81%
14:00 +20°C° 1.6 mm 2 mps 719 mmHg 86%
15:00 +20°C° 1.6 mm 1 mps 719 mmHg 91%
16:00 +19°C° 1.6 mm 1 mps 719 mmHg 96%
17:00 +19°C° 1.6 mm 1 mps 719 mmHg 96%
18:00 +19°C° 1.6 mm 1 mps 719 mmHg 96%
19:00 +19°C° 1.6 mm 1 mps 719 mmHg 95%
20:00 +19°C° 1.4 mm 1 mps 720 mmHg 96%
21:00 +18°C° 1.4 mm 1 mps 720 mmHg 97%
22:00 +18°C° 1.4 mm 1 mps 720 mmHg 98%
23:00 +18°C° 1 mm 1 mps 720 mmHg 98%

29 Junio, Martes

Tiempo Temperatura Precipitaciones Viento Presión Humedad
00:00 +16°C° 1 mm 0 mps 720 mmHg 98%
01:00 +16°C° 1 mm 0 mps 720 mmHg 98%
02:00 +15°C° 0.6 mm 0 mps 719 mmHg 98%
03:00 +15°C° 0.6 mm 0 mps 719 mmHg 98%
04:00 +15°C° 0.6 mm 0 mps 719 mmHg 99%
05:00 +15°C° 0.1 mm 0 mps 719 mmHg 99%
06:00 +16°C° 0.1 mm 0 mps 719 mmHg 98%
07:00 +16°C° 0.1 mm 0 mps 719 mmHg 98%
08:00 +16°C° 0.2 mm 0 mps 719 mmHg 98%
09:00 +16°C° 0.2 mm 0 mps 719 mmHg 97%
10:00 +16°C° 0.2 mm 0 mps 720 mmHg 96%
11:00 +17°C° 0.3 mm 0 mps 720 mmHg 95%
12:00 +19°C° 0.3 mm 1 mps 720 mmHg 95%
13:00 +19°C° 0.3 mm 1 mps 720 mmHg 94%
14:00 +19°C° 1.2 mm 1 mps 720 mmHg 95%
15:00 +18°C° 1.2 mm 1 mps 720 mmHg 96%
16:00 +18°C° 1.2 mm 1 mps 720 mmHg 97%
17:00 +18°C° 2.4 mm 1 mps 720 mmHg 97%
18:00 +16°C° 2.4 mm 1 mps 720 mmHg 98%
19:00 +16°C° 2.4 mm 1 mps 720 mmHg 99%
20:00 +16°C° 1.1 mm 1 mps 720 mmHg 98%
21:00 +16°C° 1.1 mm 1 mps 721 mmHg 98%
22:00 +15°C° 1.1 mm 1 mps 721 mmHg 98%
23:00 +15°C° 0.2 mm 1 mps 721 mmHg 98%
Mostrar más

Necesitamos Su Consentimiento

Meteoprog y nuestros Proveedores de Servicios pueden almacenar y acceder a sus datos personales como cookies, identificadores de dispositivo u otras tecnologías similares de su dispositivo y procesar dichos datos para personalizar contenido y anuncios, además de ofrecer funciones de redes sociales y analizar el tráfico.

  • Almacenar y/o acceder a información en su dispositivo

    Se puede almacenar o acceder a cookies, identificadores de dispositivo u otra información de su dispositivo para los fines anteriormente indicados.

  • Anuncios y contenido personalizados, medición de anuncios y contenido, percepciones del público, y desarrollo de productos

    Los anuncios y el contenido pueden personalizarse en base a su perfil. Se pueden añadir más datos para personalizar mejor los anuncios y contenidos. Se puede medir el rendimiento de los anuncios y contenidos. Se puede obtener la percepción sobre el público que ha visto los anuncios y contenidos. Dichos datos pueden usarse para desarrollar o mejorar la experiencia del usuario, sistemas y software.

Al hacer clic en ‘Estoy De Acuerdo’ usted permitirá el uso de las cookies, identificadores de dispositivo, balizas web u otras tecnologías similares indicadas. Su configuración puede cambiarse desde el navegador de su dispositivo.

Para ciertos fines, los intereses legítimos pueden ser considerados por encima del consentimiento. Puede leer más sobre ello en nuestra Política de Privacidad y Cookies.